Dewpoint
72 73 74 74 74 75 75 76 76 75 75 76 75 75 75 76 76 76 76 77 77 78 77 77 77 77 77 77 77 77 77 76 77 76 76 76 76 76 76 76 76 75 75 75 75 75 75 75 75 76 76 76 76 75 74 74 75 74 74 74 73 73 73 73 73 73 74 73 73 72 72 72 73 73 73 72 73 73 73 73 73 72 72 72 72
72 73 74 73 74 75 75 76 76 75 76 75 75 75 75 75 76 76 76 76 77 77 77 77 77 77 77 77 77 77 76 77 76 76 76 76 76 76 75 75 75 75 75 75 75 75 75 75 75 74 75 75 75 75 74 74 74 74 74 74 73 73 73 73 73 73 73 73 73 73 72 72 72 72 73 72 73 73 73 73 73 73 72 72 73
73 73 74 74 75 74 75 74 76 75 75 75 75 75 76 76 76 76 76 76 77 77 77 77 77 77 77 77 76 77 77 77 76 76 76 76 75 75 75 75 75 74 75 74 74 75 74 75 75 74 74 74 74 74 74 75 74 74 74 74 74 74 75 74 74 73 73 72 72 72 73 73 73 72 72 72 73 73 73 73 73 73 71 73 72
72 73 74 74 74 75 75 75 75 75 75 75 75 75 76 76 76 76 76 76 77 77 77 77 77 77 76 76 76 76 76 76 76 76 75 75 75 75 75 75 75 74 75 75 75 75 74 74 74 74 73 75 74 74 75 75 74 73 74 74 74 74 74 74 74 74 74 74 74 74 75 72 72 72 72 72 72 72 73 73 73 73 73 72 72
72 73 73 74 74 75 75 75 75 75 75 75 75 76 76 76 76 76 76 76 77 77 77 77 77 77 77 77 76 76 76 76 76 76 75 75 75 75 75 75 75 75 75 75 75 75 74 75 74 74 74 74 74 74 74 75 74 75 74 75 74 75 74 74 74 74 73 73 73 74 72 72 71 72 72 71 71 73 73 73 73 73 73 73 73
72 73 73 72 73 75 76 75 75 75 75 75 75 76 76 76 76 76 76 76 77 76 76 76 76 76 76 76 76 76 76 76 75 75 75 75 76 75 75 75 75 75 75 75 75 75 74 75 75 74 74 73 74 74 74 74 74 74 74 74 74 74 75 74 74 74 74 74 73 73 72 72 73 71 71 71 72 74 74 73 73 73 73 73 72
73 73 73 73 73 74 76 75 75 75 75 75 75 76 76 76 76 76 76 76 76 76 76 76 76 76 76 76 76 76 76 75 75 75 75 76 75 75 75 75 75 75 74 75 75 75 74 74 74 74 74 74 74 74 74 74 74 74 75 74 74 74 74 75 75 74 74 75 71 71 70 72 72 71 71 71 73 73 74 73 73 73 73 73 73
73 73 73 74 74 75 76 76 76 75 75 75 76 76 76 76 76 76 76 76 76 76 76 76 76 76 76 76 76 76 76 75 75 75 76 75 75 75 75 75 75 75 75 75 75 75 74 74 74 74 74 74 74 74 74 74 75 74 75 75 75 75 75 75 75 75 74 72 72 71 70 72 72 71 71 73 72 73 74 74 73 73 73 73 73
73 73 73 73 74 76 76 76 76 75 75 75 76 76 76 76 76 76 76 76 76 76 76 76 76 76 76 76 76 76 76 76 75 76 76 75 75 75 75 75 76 75 75 75 75 75 75 75 74 74 74 74 74 74 74 74 75 75 74 75 75 75 75 75 75 75 74 73 73 72 71 72 72 71 72 72 73 74 74 73 73 73 73 73 73
73 73 73 73 74 76 76 76 76 76 75 75 76 76 76 76 76 76 76 75 76 76 76 76 76 76 76 76 76 76 76 76 76 76 75 75 75 75 75 75 76 75 75 75 75 75 75 75 75 75 74 74 74 74 74 75 75 75 74 74 74 75 75 75 74 74 73 73 73 72 72 74 71 71 72 72 73 73 74 73 73 73 73 73 73
72 73 73 73 74 76 76 76 76 76 75 75 76 76 76 76 76 76 75 75 76 76 76 75 75 75 75 75 75 76 76 76 76 75 75 74 74 75 75 75 75 74 74 74 74 74 75 75 75 74 74 74 74 74 74 74 75 75 74 75 75 75 75 75 74 73 73 72 71 71 72 73 71 71 73 72 72 73 73 72 72 72 73 73 73
72 73 73 73 75 76 77 77 76 76 75 75 75 75 75 75 75 75 75 75 76 76 76 76 75 75 75 75 75 76 76 76 75 75 74 74 75 75 75 74 74 74 74 74 74 74 75 75 74 74 74 74 74 74 73 74 75 74 74 74 74 74 74 74 73 72 72 72 72 71 71 72 72 72 73 73 73 72 73 72 72 72 73 74 73
72 73 73 74 75 76 77 77 76 76 76 76 76 75 75 75 75 75 75 76 76 76 76 75 75 75 75 75 75 75 75 76 75 74 74 74 75 74 75 75 74 74 74 74 74 74 75 75 75 74 74 74 74 74 73 73 74 74 74 74 74 74 74 74 73 72 72 72 73 73 72 71 72 74 73 73 73 73 73 73 72 72 73 73 73
72 73 73 75 75 77 77 77 77 76 76 76 76 76 75 75 75 75 75 76 76 76 76 75 75 75 75 75 75 75 75 75 75 75 74 74 74 75 75 74 74 74 73 74 74 74 75 75 75 74 74 74 74 74 74 74 74 74 74 75 75 74 75 75 75 73 73 74 74 72 71 73 72 74 73 73 73 73 73 72 72 73 73 73 73
72 73 74 75 75 76 77 77 77 77 76 76 76 76 75 75 75 75 75 76 76 76 76 75 75 75 75 75 75 75 75 75 75 75 75 75 75 75 75 74 74 74 74 74 75 75 75 75 75 75 75 75 75 75 74 74 74 74 74 75 74 75 75 74 73 73 74 74 74 73 72 72 75 74 73 72 73 73 72 72 73 73 73 73 73
73 74 74 75 75 76 76 77 77 76 77 76 76 76 75 75 75 75 75 75 76 76 76 75 75 75 75 75 75 75 75 75 75 75 75 75 75 76 76 75 75 75 74 75 75 75 75 75 75 75 75 75 75 75 75 74 74 75 74 75 75 75 74 75 73 73 73 72 73 74 72 73 74 74 73 73 72 73 73 73 73 73 74 73 73
73 74 74 74 75 75 75 76 76 76 76 76 76 76 75 75 75 75 75 75 76 76 76 76 75 75 75 75 75 75 75 76 76 75 75 75 75 75 75 75 75 75 75 75 75 75 75 75 75 75 75 75 76 75 75 75 75 74 74 74 75 75 74 75 73 72 72 74 74 73 73 73 75 73 73 72 72 73 73 73 73 73 73 73 72
74 74 74 75 75 75 75 75 75 75 75 76 76 76 76 75 76 75 75 75 76 76 75 75 75 75 75 75 75 76 76 76 76 75 75 75 75 74 74 74 75 75 75 75 75 75 74 74 74 74 74 74 75 75 75 75 75 74 74 75 75 75 75 75 72 72 73 74 74 74 74 75 75 73 73 72 72 72 73 73 73 73 73 73 72
73 74 74 75 75 75 75 75 76 75 75 75 75 75 76 76 76 76 76 75 75 76 75 75 75 75 75 76 76 76 76 76 76 75 75 75 75 74 73 73 74 74 75 75 75 75 74 73 74 74 74 74 74 75 75 76 75 75 75 76 75 75 74 74 72 72 74 72 74 73 73 75 75 73 73 72 72 72 72 73 73 73 72 73 73
73 74 74 74 74 75 75 75 75 75 75 75 75 74 75 76 76 76 76 76 75 75 76 75 76 76 76 76 76 76 76 75 76 75 75 75 74 74 73 73 74 74 74 75 75 75 75 74 73 74 74 74 75 75 76 76 75 75 75 76 76 76 74 74 73 73 73 72 75 74 74 75 74 73 73 73 72 72 73 73 73 73 72 72 72
72 73 73 74 74 74 75 75 75 75 75 75 75 75 75 76 75 76 76 76 76 76 76 76 76 76 76 75 76 76 75 75 75 75 75 75 75 75 75 74 72 73 74 74 75 74 75 75 75 75 74 75 75 75 76 75 75 75 74 75 75 74 73 73 73 73 73 74 75 74 75 75 74 73 73 73 73 73 72 72 73 73 72 72 72
71 72 73 73 74 74 75 75 75 75 75 75 75 75 75 75 75 75 76 75 76 76 76 76 77 75 76 75 75 76 75 74 75 77 76 76 75 76 76 76 74 72 73 73 74 75 75 74 74 74 74 74 75 76 75 76 75 75 74 75 74 72 72 72 72 72 73 73 75 75 76 75 74 73 73 73 73 73 72 72 72 72 72 72 72
70 72 72 73 73 74 74 74 75 75 75 75 75 75 75 75 75 75 76 76 77 77 76 77 75 75 75 75 76 75 75 75 76 77 77 77 76 76 75 75 73 72 72 74 74 75 75 75 75 75 75 75 76 75 75 74 74 76 75 74 72 72 72 71 71 71 73 73 75 75 75 75 74 73 73 72 73 73 73 72 72 72 72 72 72
70 71 72 72 73 73 74 74 75 75 75 75 75 75 75 75 75 75 75 75 76 76 75 76 75 75 75 75 76 75 76 76 78 77 77 76 76 76 76 76 74 73 73 74 76 76 77 77 76 76 77 78 74 73 75 75 73 72 72 72 72 71 71 71 71 71 72 74 75 76 75 75 73 73 73 72 72 73 73 72 72 72 72 72 72
69 70 71 72 73 73 74 74 75 74 74 75 75 75 75 75 75 75 75 75 75 76 75 75 75 75 75 75 75 75 76 75 75 76 75 75 75 75 76 76 74 73 75 74 75 75 77 76 75 77 75 74 74 73 73 73 73 72 72 71 71 71 71 72 71 71 72 72 75 76 75 75 75 74 74 72 73 72 72 73 72 72 72 72 72
70 69 70 71 73 73 73 74 74 74 74 74 75 75 76 74 74 75 75 75 75 75 75 75 75 75 75 75 75 75 75 75 74 74 75 74 74 74 75 75 74 74 76 75 74 75 74 74 74 74 74 74 73 72 72 72 72 72 71 71 70 70 71 71 70 70 71 72 75 76 76 76 76 75 73 73 73 74 72 73 73 73 73 73 72
69 69 70 71 72 73 73 74 74 74 74 74 74 75 75 74 74 75 74 75 75 75 75 75 75 75 75 75 76 75 74 74 73 73 74 75 74 74 74 75 74 74 76 75 74 74 73 73 73 73 74 72 72 72 72 72 71 71 71 70 70 69 69 69 70 70 71 72 74 76 76 76 76 75 74 74 73 73 73 72 73 73 73 73 73
70 69 70 71 73 72 73 74 74 73 73 74 74 74 75 74 74 76 75 75 75 75 75 75 75 75 75 75 76 74 73 73 73 73 73 74 74 74 74 73 73 74 75 75 74 73 73 73 73 73 73 73 71 70 70 69 69 69 69 69 69 69 68 68 70 69 70 72 73 76 76 76 76 76 75 74 74 73 74 74 73 73 73 73 73
69 69 70 71 72 72 73 73 73 73 73 73 74 74 74 74 74 75 75 76 75 75 75 75 74 74 75 75 76 73 73 72 72 72 74 75 75 74 73 73 73 74 75 74 74 73 73 74 73 72 72 72 71 70 70 69 68 68 67 67 68 68 68 68 70 70 70 71 73 75 76 77 76 76 75 74 74 74 74 74 73 73 72 72 72
69 69 70 71 72 72 72 73 73 73 73 73 74 74 73 74 74 74 74 76 74 74 74 74 74 74 74 75 75 73 72 72 72 73 73 74 74 74 74 73 73 74 75 74 74 74 72 72 72 72 71 71 71 71 71 69 68 67 67 64 65 65 67 68 69 70 70 72 73 75 76 76 77 76 76 74 74 74 74 73 73 73 73 72 72
70 69 70 71 72 72 72 73 72 73 72 72 73 73 73 73 74 74 74 74 74 74 74 73 73 74 74 75 75 74 72 72 72 72 73 73 73 74 73 73 73 73 74 72 75 73 72 73 72 71 71 71 70 71 71 69 69 68 67 65 63 65 65 67 69 70 71 73 73 73 76 77 77 76 76 76 74 74 74 74 74 73 73 73 72
69 69 70 71 71 72 72 72 72 73 73 72 73 73 72 72 74 73 73 74 74 73 73 73 74 73 74 75 74 74 74 72 72 72 73 73 73 74 74 73 72 73 74 73 74 74 74 73 73 72 72 71 70 70 70 70 69 67 66 65 65 67 66 65 66 68 71 73 72 72 74 76 77 76 76 76 75 74 74 74 74 74 73 74 74
69 70 70 71 71 71 72 72 72 73 72 72 73 73 72 72 73 73 73 74 73 73 72 72 73 73 74 74 74 74 74 72 72 73 76 73 74 73 73 75 74 74 74 75 75 74 73 73 73 74 73 71 71 70 70 68 67 65 65 64 66 65 67 64 64 66 72 72 72 73 74 75 75 76 76 75 76 75 74 74 74 73 73 74 73
69 69 70 70 71 71 72 72 72 72 72 71 72 72 72 72 73 73 73 73 73 72 72 72 73 73 74 75 75 75 74 72 72 73 75 73 74 73 73 74 74 75 75 75 74 72 71 71 71 72 74 72 70 70 68 66 66 65 63 66 66 66 65 63 64 68 72 72 72 73 74 74 74 74 75 76 76 75 75 75 74 74 74 74 74
69 69 69 70 71 71 72 71 72 72 73 71 72 72 72 72 72 72 72 73 72 72 72 72 72 73 74 75 75 76 75 73 73 74 75 74 74 73 73 74 75 75 75 74 73 73 72 71 72 69 70 70 70 70 69 66 67 65 65 69 66 67 66 65 64 69 72 72 72 73 73 74 74 74 75 75 76 76 76 75 75 74 74 74 74
68 69 69 69 70 70 71 71 72 71 72 72 72 72 72 72 72 74 72 73 72 72 72 71 72 74 75 75 75 76 76 74 75 75 75 74 73 72 74 74 75 74 74 74 73 72 72 72 72 70 68 68 71 68 68 66 67 66 67 68 66 70 65 66 64 65 69 71 72 72 73 73 73 74 76 73 74 75 76 75 74 74 74 74 74
68 68 69 69 69 70 72 71 71 71 72 72 72 72 72 72 72 72 72 73 72 72 72 72 72 74 75 74 75 76 76 75 76 75 74 74 73 73 74 74 75 74 73 73 72 73 72 71 71 73 69 68 68 68 67 66 65 66 64 64 66 69 65 66 65 65 67 69 70 71 72 72 73 76 74 73 73 74 76 76 75 74 74 74 74
68 68 68 68 69 69 70 70 71 71 72 72 71 71 72 72 72 73 74 73 72 72 72 72 72 74 75 74 75 76 76 76 76 75 74 74 74 74 74 75 74 73 73 72 71 71 71 70 69 71 72 69 68 67 65 66 66 65 64 64 65 65 65 66 69 72 65 65 67 69 71 71 74 74 73 72 73 73 74 76 75 74 74 74 74
67 68 68 68 68 69 70 71 71 71 71 72 72 71 72 72 72 73 73 73 72 73 73 72 73 73 74 75 75 76 77 76 75 76 75 76 74 74 74 74 74 73 72 71 71 72 71 70 70 70 72 70 68 67 64 66 65 66 66 65 66 66 66 67 68 66 65 64 66 68 69 71 71 71 72 71 72 72 73 73 73 73 73 74 74
67 68 68 68 68 68 69 71 71 71 71 71 72 71 71 71 71 72 73 73 72 73 73 72 73 73 74 75 76 76 76 76 75 76 75 75 74 74 73 74 74 73 72 71 71 71 71 71 70 70 69 70 71 67 66 63 65 65 69 68 67 67 65 71 67 67 67 66 67 68 68 68 70 70 71 71 71 72 72 72 73 71 72 73 74
67 67 67 67 67 68 69 70 71 71 71 70 72 71 70 71 71 71 71 72 72 72 72 72 72 73 74 75 76 76 76 76 76 76 75 77 75 74 74 74 74 73 72 71 71 71 71 71 71 71 68 65 64 67 66 65 62 62 64 64 66 67 73 70 66 65 64 62 65 64 66 67 68 69 69 70 70 71 71 71 71 70 71 72 73
66 67 67 67 67 68 68 69 71 70 70 70 72 71 71 70 70 70 71 71 71 71 71 72 72 73 73 75 76 75 76 76 76 76 76 76 75 74 74 74 74 73 72 72 71 73 72 71 70 67 67 64 62 65 67 64 62 61 60 61 65 63 68 68 66 65 62 59 59 60 61 63 65 67 68 69 69 70 70 70 71 70 70 70 70
66 66 67 67 67 67 68 69 70 70 70 70 72 71 71 70 70 70 70 71 72 72 71 73 73 73 73 75 76 76 76 76 76 76 76 76 75 74 74 74 73 74 72 71 72 71 71 70 69 65 64 66 66 68 65 63 61 65 64 61 59 59 63 64 66 68 60 57 58 58 60 62 65 67 68 68 68 68 69 69 70 70 70 70 70
66 66 67 66 67 68 68 69 70 70 70 70 72 71 71 71 70 70 70 71 71 72 72 73 73 74 74 75 76 76 76 76 76 76 76 76 75 74 74 73 73 74 72 71 71 70 70 68 67 66 64 62 63 63 66 65 65 63 58 59 60 61 58 57 61 64 64 57 56 57 60 62 64 64 65 66 66 66 66 67 69 70 71 70 70
65 65 66 66 67 68 67 69 70 70 70 70 71 71 72 71 71 71 71 71 72 72 71 71 72 73 74 74 75 76 76 76 76 77 76 76 75 74 73 73 73 73 72 71 70 69 69 68 66 66 63 63 62 64 66 66 63 64 64 61 59 58 57 59 61 60 63 55 56 56 62 59 60 63 64 64 65 65 64 64 65 69 70 70 69
65 65 66 67 66 68 68 69 70 71 70 70 71 71 71 70 70 70 69 69 69 70 69 69 71 72 74 75 75 76 76 76 76 77 76 76 74 74 73 73 73 73 72 70 70 68 67 64 66 66 64 64 63 63 63 67 66 68 65 63 61 58 58 60 58 55 62 62 58 58 60 57 59 62 62 63 63 63 66 63 64 67 70 70 70
65 66 66 67 67 67 68 69 70 71 71 71 71 72 71 70 70 69 69 68 68 69 70 70 71 72 74 75 75 76 76 75 76 76 75 76 74 73 73 73 73 73 73 70 69 68 66 65 67 64 64 68 64 62 63 64 62 63 66 64 67 67 63 59 56 58 55 57 61 57 55 58 59 58 61 62 62 62 64 64 63 65 69 70 70
64 66 66 67 67 67 68 69 70 71 71 71 71 71 71 70 70 69 70 69 68 69 70 70 71 73 74 75 75 76 76 75 75 75 75 76 75 74 73 73 73 71 72 70 69 68 66 67 68 66 67 66 64 63 63 63 61 61 68 63 65 66 64 63 62 57 56 54 54 57 58 58 59 58 59 60 61 61 62 63 62 64 68 69 70
64 65 67 67 68 68 68 69 70 72 72 72 71 71 71 71 70 70 70 70 69 70 71 71 72 73 73 75 75 75 75 75 75 75 74 75 75 74 73 72 71 71 72 70 68 66 65 67 67 66 66 65 64 64 64 63 63 62 62 61 62 61 62 62 65 62 59 55 55 56 55 57 57 57 59 59 59 60 61 60 60 63 68 69 69
64 66 67 68 68 68 68 69 69 71 72 72 72 71 71 72 70 70 70 70 70 70 72 71 72 73 72 74 75 74 75 74 74 74 74 74 74 74 72 71 70 70 72 68 66 66 67 67 66 65 65 65 66 65 63 64 63 64 63 62 62 60 57 57 58 59 58 56 53 53 55 53 54 55 59 57 57 58 59 58 62 62 63 66 67
64 65 66 68 68 68 68 69 70 70 72 72 72 71 71 71 71 70 70 70 70 70 72 71 72 73 72 74 74 74 74 74 74 74 74 73 73 73 72 70 70 70 71 68 66 66 66 66 66 66 65 64 65 65 67 64 65 65 64 61 61 59 58 56 56 58 58 57 55 55 56 58 53 54 57 57 60 59 59 59 61 60 61 62 65